User: anonymous   Login
Location: house
(32.4460°N, 85.5928°W)
Time: 09:21:27
(UTC-05:00)
Language:

Oscar 19 - Orbit

View from above orbital plane
View from above orbital plane
View from above satellite
View from above satellite

Ground track
Ground track

The orbit data is extracted from the following two-line orbital elements,

1 20442U 90005G   19291.79643901  .00000007  00000-0  18767-4 0  9997
2 20442  98.6594 233.6463 0012294 145.0494 215.1500 14.32935333553864
Epoch (UTC): 18 October 2019 19:06:52
Eccentricity: 0.0012294
inclination: 98.6594°
perigee height: 773 km
apogee height: 791 km
right ascension of ascending node: 233.6463°
argument of perigee: 145.0494°
revolutions per day: 14.32935333
mean anomaly at epoch: 215.1500°
orbit number at epoch: 55386

The dashed part of the orbit path shows where the satellite is in the earth's shadow,  

DLR